Regional Weather Roundup
Issued by NWS

Home | Current Version | Previous Version | Graphics & Text | Print | Product List | Glossary On
Versions: 1 2 3 4 5 6 7 8 9 10 11 12 13 14 15 16 17 18 19 20 21 22 23 24 25 26 27 28 29 30 31 32 33 34 35 36 37 38 39 40 41 42 43 44 45 46 47 48 49 50
000
ASUS43 KMKX 011159
RWRWI

WISCONSIN REGIONAL WEATHER ROUNDUP
NATIONAL WEATHER SERVICE MILWAUKEE/SULLIVAN WI
600 AM CST SUN FEB 01 2015

NOTE: "FAIR" INDICATES FEW OR NO CLOUDS BELOW 12,000 FEET WITH NO
SIGNIFICANT WEATHER AND/OR OBSTRUCTIONS TO VISIBILITY.

WIZ001-002-006>008-014>016-023>028-011300-
NORTHWEST WISCONSIN

CITY           SKY/WX    TMP DP  RH WIND       PRES   REMARKS
SUPERIOR ARPT  LGT SNOW  10   8  89 NE14G23   30.36S WCI  -5
ASHLAND        CLOUDY     8   0  69 NE6       30.35F WCI  -2
6HR MIN TEMP:   8; 6HR MAX TEMP:  15; 6HR PCP: TRACE;

HAYWARD        CLOUDY     7  -3  64 NE10      30.27F WCI  -8
6HR MIN TEMP:   7; 6HR MAX TEMP:  13;

SIREN          CLOUDY    12   2  65 NE13G21   30.26S WCI  -3
CUMBERLAND     CLOUDY    10   1  67 NE15G23   30.21S WCI  -6
RICE LAKE      CLOUDY    11   1  64 NE17      30.23S WCI  -6
CHETEK         CLOUDY    10   0  64 MISG      30.22F
LADYSMITH      CLOUDY     9   1  72 NE14G20   30.24F WCI  -8
EAU CLAIRE     NOT AVBL
MENOMONIE      CLOUDY    14   8  75 NE13G21   30.20S WCI   0
NEW RICHMOND   CLOUDY    13   4  65 NE14G24   30.19S WCI  -2
OSCEOLA        CLOUDY    15   4  62 NE16G25   30.24S WCI  -1
$$

WIZ003>005-009-010-017-018-011300-
NORTH CENTRAL WISCONSIN

CITY           SKY/WX    TMP DP  RH WIND       PRES   REMARKS
MANITOWISH WTR CLOUDY     3  -3  76 NE10      30.24F WCI -13
ARBOR VITAE    CLOUDY     5  -1  77 NE7       30.23S WCI  -7
WOODRUFF       CLOUDY     5  -1  77 NE7       30.23S WCI  -7
RHINELANDER    CLOUDY     5  -2  72 NE10      30.21S WCI -10
6HR MIN TEMP:   4; 6HR MAX TEMP:   8;

EAGLE RIVER    CLOUDY     4  -2  75 NE9       30.22F WCI -10
LAND O LAKES   CLOUDY     4  -1  81 NE5       30.24F WCI  -6
PHILLIPS       CLOUDY     4  -2  75 NE12      30.22F WCI -12
TOMAHAWK       CLOUDY     6  -1  74 CALM      30.21F
MEDFORD        CLOUDY     8   1  71 NE16      30.17F WCI  -9
MERRILL        CLOUDY     8   1  72 NE8       30.20F WCI  -4
$$

WIZ029-030-035-036-043>047-011300-
CENTRAL WISCONSIN

CITY           SKY/WX    TMP DP  RH WIND       PRES   REMARKS
WAUSAU         CLOUDY    10   2  69 NE12G17   30.18F WCI  -5
6HR MIN TEMP:  10; 6HR MAX TEMP:  16;

MOSINEE        LGT SNOW  10   7  85 NE16G23   30.19F WCI  -7
MARSHFIELD     LGT SNOW  11   6  81 NE14      30.15F WCI  -5
6HR MIN TEMP:  11; 6HR MAX TEMP:  20; 6HR PCP: TRACE;

STEVENS POINT  LGT SNOW   9   5  83 NE13G21   30.18F WCI  -6
WAUPACA        LGT SNOW  14   9  79 NE8G16    30.21S WCI   3
WAUTOMA        NOT AVBL
WISC RAPIDS    LGT SNOW  12   5  73 E14G20    30.18F WCI  -3
6HR MIN TEMP:  12; 6HR MAX TEMP:  23; 6HR PCP:  0.01;

CAMP DOUGLAS   LGT SNOW  12  12 100 NE12G21   30.14F FOG     WCI  -2
$$

WIZ011>013-019>022-031-037>040-048>050-011300-
NORTHEAST WISCONSIN

CITY           SKY/WX    TMP DP  RH WIND       PRES   REMARKS
ANTIGO         CLOUDY     8   2  79 NE13G18   30.19F WCI  -8
SHAWANO        CLOUDY    14   5  67 NE15      30.25F WCI  -1
OCONTO         CLOUDY    13   6  74 MISG      30.26F
STURGEON BAY   CLOUDY    12   5  73 N13       30.26S WCI  -3
6HR MIN TEMP:  12; 6HR MAX TEMP:  14;

GREEN BAY      CLOUDY    14   6  70 NE26G35   30.23F WCI  -6
6HR MIN TEMP:  14; 6HR MAX TEMP:  16; 6HR PCP: TRACE;

MANITOWOC      NOT AVBL
APPLETON       LGT SNOW  12   7  79 NE17G23   30.19F WCI  -5
CLINTONVILLE   FLURRIES  14   5  67 NE13G20   30.23F WCI   0
OSHKOSH        LGT SNOW  14   9  80 NE21G26   30.17F VSB 1   WCI  -4
6HR MIN TEMP:  13; 6HR MAX TEMP:  17; 6HR PCP: TRACE;

$$

WIZ032>034-041-042-053>061-011300-
SOUTHWEST WISCONSIN

CITY           SKY/WX    TMP DP  RH WIND       PRES   REMARKS
LA CROSSE      LGT SNOW  17  12  80 NE13G21   30.12F WCI   4
6HR MIN TEMP:  17; 6HR MAX TEMP:  28; 6HR PCP:  0.16;

SPARTA         LGT SNOW  14   9  81 NE13G20   30.15S WCI   0
VIROQUA        CLOUDY    15  12  88 NE17G25   30.04F WCI  -2
BOSCOBEL       LGT SNOW  18  13  80 NE12G22   30.06S VSB 1   WCI   5
6HR MIN TEMP:  18; 6HR MAX TEMP:  28; 6HR PCP:  0.11;

PRAIRIE DU CHI LGT SNOW  21  16  80 NE15G25   30.03R WCI   8
PLATTEVILLE    CLOUDY    21  18  90 NE26G35   29.96F WCI   3
$$

WIZ056-057-062-063-064-067-068-011300-
SOUTH CENTRAL WISCONSIN

CITY           SKY/WX    TMP DP  RH WIND       PRES   REMARKS
REEDSBURG      LGT SNOW  14  10  86 NE10G16   30.10F WCI   1
BARABOO/DELLS  LGT SNOW  13  10  85 NE15G21   30.10F VSB 1   WCI  -3
LONE ROCK      LGT SNOW  18  13  80 NE12G23   30.08F VSB 1   WCI   5
MINERAL POINT  LGT SNOW  21  18  86 NE23G29   29.98F WCI   5
MADISON        LGT SNOW  16  12  84 NE16      30.07F FOG     WCI   1
6HR MIN TEMP:  16; 6HR MAX TEMP:  26; 6HR PCP:  0.14;

MIDDLETON      CLOUDY    18  13  84 NE17G24   30.08S WCI   2
WATERTOWN      LGT SNOW  20  19  93 NE15G23   30.08F WCI   6
MONROE         LGT SNOW  25  25 100 NE20      29.98F WCI  11
JANESVILLE     CLOUDY    27  25  93 NE21      30.01F WCI  13
$$

WIZ051-052-058>065-066-070>072-011300-
SOUTHEAST WISCONSIN

CITY           SKY/WX    TMP DP  RH WIND       PRES   REMARKS
MILWAUKEE      LGT SNOW  25  21  85 NE23G30   30.09F VSB 3/4 WCI  10
6HR MIN TEMP:  25; 6HR MAX TEMP:  29; 6HR PCP:  0.13;

WAUKESHA       LGT SNOW  21  19  93 NE12G23   30.08F VSB 1   WCI   9
MILWAUKEE/TIMM LGT SNOW  25  21  86 NE14G25   30.11F WCI  13
RACINE         LGT SNOW  26  22  84 NE21      30.09S VSB 3/4 WCI  12
6HR MIN TEMP:  26; 6HR MAX TEMP:  30; 6HR PCP: TRACE;

BURLINGTON     LGT SNOW  24  22  93 NE16      30.05F WCI  11
KENOSHA        SNOW      27  25  92 NE21      30.06S VSB 1/2 WCI  13
6HR MIN TEMP:  27; 6HR MAX TEMP:  30; 6HR PCP:  0.03;

FOND DU LAC    LGT SNOW  14  10  84 NE15      30.17S FOG     WCI  -1
6HR MIN TEMP:  14; 6HR MAX TEMP:  23; 6HR PCP: TRACE;

SHEBOYGAN      LGT SNOW  18  14  84 N10       30.16F VSB 3/4 WCI   6
6HR MIN TEMP:  16; 6HR MAX TEMP:  24; 6HR PCP:  0.02;

WEST BEND      LGT SNOW  19  18  93 NE8       30.12F WCI   9
JUNEAU         LGT SNOW  15  12  88 N15G22    30.11F WCI   0
$$

LSZ147-162-011300-
LAKE SUPERIOR

STATION/POSITION TIME  TEMP    WIND        PRES    WAVE
                       AIR SEA DIR/SP/G            HT/PER
                 (UTC) (F)     (DEG/KT/KT) (MB)    (FT/S)
DEVILS ISLAND    1100   10      50/ 20/ 23 1031.0F
PORT WING        1100   13      60/ 14/ 17 1028.4S
SAXON HARBOR     1100    8      CALM  /  6 1028.1F
$$

LMZ867-665-643>646-011300-
LAKE MICHIGAN

STATION/POSITION TIME  TEMP    WIND        PRES    WAVE
                       AIR SEA DIR/SP/G            HT/PER
                 (UTC) (F)     (DEG/KT/KT) (MB)    (FT/S)
NORTHPORT PIER   1129   13      20/ 18/ 23 1026.1S
SISTER BAY       1028   13     360/ 15/ 21   N/A
KEWAUNEE LAKESHO 1100   16      10/ 11/ 17 1022.7F
SHEBOYGAN LAKESH 1100   23      50/ 28/ 30 1022.7R
PORT WASHINGTON  1134   26      50/ 22/ 25 1021.3F
MILWAUKEE LAKESH 1100   26      50/ 23/ 29   N/A
KENOSHA   LAKESH 1100   29      60/ 25/ 28 1018.3F
$$

TC  - TEMPERATURE IN CELSIUS
VSB - VISIBILITY IN STATUTE MILES
WCI - WIND CHILL INDEX
HX  - HEAT INDEX




USA.gov is the U.S. government's official web portal to all federal, state and local government web resources and services.